Location: ??????????
(54.7560°N, 39.1389°E)
Time: 14:28:32
(UTC+00:00)

Daily predictions for brighter satellites

Satellite Brightness Start Highest point End
(mag) Time Altitude Azimuth Time Altitude Azimuth Time Altitude Azimuth
ERS-1 Rocket 3.3 18:30:11 10° S 18:35:11 68° WSW 18:40:14 10° NNW
ATLAS 2AS CENTAUR R/B 4.2 18:28:51 10° W 18:35:38 42° N 18:42:08 10° ENE
CZ-4C R/B 3.9 18:32:26 10° N 18:36:16 62° WNW 18:40:14 10° SSW
SPOT 3 Rocket 3.6 18:31:14 10° SSE 18:36:22 88° ENE 18:41:34 10° NNW
Cosmos 614 Rocket 4.3 18:33:21 10° S 18:38:21 49° ESE 18:43:24 10° NE
Cosmos 1818 4.2 18:33:50 10° S 18:38:44 35° ESE 18:43:41 10° NE
Meteor 1-27 Rocket 3.7 18:34:16 10° S 18:39:46 79° ESE 18:45:24 10° NNE
Lacrosse 4 Rocket 1.7 18:37:08 10° NW 18:41:10 57° WSW 18:45:14 10° SSE
Cosmos 1340 Rocket 2.8 18:40:23 10° S 18:44:22 80° ESE 18:48:21 10° NNE
Resurs 01 Rocket 4.4 18:44:21 10° WSW 18:46:33 13° W 18:48:45 10° NW
Okean O Rocket 4.3 18:46:35 10° WSW 18:49:06 15° W 18:51:36 10° NW
SL-16 R/B 4.4 18:45:07 10° NNW 18:49:20 21° NNE 18:53:33 10° ENE
Cosmos 1833 Rocket 3.9 18:45:30 10° SSE 18:49:53 24° ESE 18:54:17 10° NE
Cosmos 1656 3.8 18:44:25 10° NW 18:49:53 73° WSW 18:55:23 10° SSE
Terra 2.4 18:47:00 10° S 18:51:39 56° W 18:56:18 10° NNW
Cosmos 1805 3.2 18:50:14 10° NNW 18:53:57 77° W 18:57:39 10° S
H-2A R/B 4.3 18:51:02 10° ESE 18:54:19 22° ENE 18:57:39 10° N
Cosmos 1743 Rocket 4.4 18:51:44 10° NNW 18:55:59 49° W 19:00:17 10° SSW
Cosmos 1766 3.9 18:53:15 10° N 18:56:51 41° ENE 19:00:23 10° SE
Cosmos 1553 Rocket 4.5 18:54:10 10° N 19:00:02 48° ENE 19:05:55 10° SE
Cosmos 1603 4.3 18:54:39 10° SW 19:00:18 64° NW 19:06:03 10° NNE
Cosmos 2082 Rocket 4.3 19:03:16 10° E 19:03:31 10° E 19:03:46 10° E
Cosmos 1428 Rocket 4.5 19:00:06 10° S 19:06:11 74° E 19:12:18 10° NNE
Cosmos 2360 4.3 19:01:40 10° NW 19:07:26 84° WSW 19:13:00 11° SSE
Landsat 5 3.4 19:06:51 10° NNE 19:10:36 58° ESE 19:14:23 10° S
Cosmos 1470 3.9 19:07:49 10° N 19:11:08 30° ENE 19:14:18 11° SE
Cosmos 1151 Rocket 3.2 19:08:37 10° SSW 19:12:57 75° WNW 19:17:17 10° N
BREEZE-M DEB (TANK) 4.5 19:09:48 10° WSW 19:13:51 57° SSE 19:30:45 10° E
USA 281 3.3 19:07:22 10° SSE 19:13:59 77° WSW 19:20:37 10° NNW
Cosmos 1975 3.1 19:10:36 10° NNW 19:14:31 63° W 19:18:23 10° S
Meteor 1-18 Rocket 4.4 19:11:22 10° S 19:17:13 64° E 19:23:03 10° NNE
NOSS 3-3 (A) 4.0 19:12:20 10° SSW 19:17:43 53° SE 19:24:02 10° NE
MOS 1 Rocket 4.4 19:15:59 10° S 19:21:05 49° W 19:26:21 10° NNW
Cosmos 1092 Rocket 4.1 19:18:11 10° S 19:24:28 78° E 19:30:51 10° NNE
Cosmos 220 Rocket 4.1 19:23:16 10° SSW 19:27:35 77° WNW 19:31:55 10° NNE
Cosmos 1908 4.3 19:24:51 10° N 19:28:04 30° ENE 19:30:53 12° SE
ARIANE 5 R/B 2.9 19:25:29 13° SSE 19:29:17 58° ENE 19:33:32 10° N
NOSS 3-4 (A) 3.8 19:24:40 10° NW 19:31:17 83° SW 19:38:50 11° SE
NOSS 3-4 (C) 3.8 19:24:46 10° NW 19:31:24 83° SW 19:38:57 11° SE
Cosmos 1328 Rocket 3.5 19:28:23 10° S 19:32:42 80° E 19:37:01 10° NNE
CZ-2C R/B 4.3 19:29:48 10° NNE 19:34:02 39° E 19:37:29 14° SSE
Cosmos 1140 Rocket 4.1 19:34:28 12° S 19:38:49 39° ESE 19:43:38 10° NE
OPS 6432 4.4 19:39:16 10° NW 19:42:31 67° NE 19:45:18 12° ESE
Cosmos 1515 Rocket 3.8 19:40:01 14° SSE 19:43:32 51° E 19:47:44 10° NNE
Spot 4 4.5 19:40:14 12° SE 19:44:21 46° ENE 19:48:56 10° N
Cosmos 2322 Rocket 4.2 19:40:01 10° NNW 19:44:40 25° NNE 19:49:19 10° E
Cosmos 1697 Rocket 2.9 19:39:05 10° NW 19:44:42 67° WSW 19:49:25 14° SSE
Cosmos 1626 2.2 19:45:19 10° SSW 19:48:30 59° WNW 19:51:43 10° N
Cosmos 1470 Rocket 3.9 19:46:25 10° NNW 19:50:50 64° W 19:54:36 14° S
NOSS 3-3 (C) 3.8 19:45:43 10° SW 19:51:17 74° SE 19:57:59 10° NE
PSLV R/B 4.4 19:48:06 10° NNE 19:51:59 42° E 19:54:49 17° SSE
Cosmos 1869 Rocket 4.1 19:48:11 10° N 19:52:27 49° ENE 19:55:52 15° SE
Cosmos 1633 Rocket 4.1 19:49:35 10° NNW 19:53:44 41° W 19:57:52 10° SSW
Cosmos 1707 3.2 19:51:54 17° SSE 19:54:17 40° E 19:57:43 10° NNE
Cosmos 1980 Rocket 2.3 19:49:11 10° NNW 19:54:56 82° ENE 19:59:53 14° SE
Cosmos 1300 4.4 19:53:02 10° NNE 19:55:51 21° ENE 19:58:36 10° ESE
USA 234 3.5 19:50:49 10° E 19:57:22 74° N 20:03:54 10° W
Cosmos 2333 Rocket 4.2 19:55:04 10° NNW 19:59:44 25° NNE 20:04:27 10° E
Cosmos 1441 Rocket 3.5 19:57:20 10° N 20:00:50 51° ENE 20:03:19 18° SE
Cosmos 44 Rocket 4.2 19:59:21 10° WNW 20:03:50 35° WSW 20:07:10 16° S
Lacrosse 5 rocket 1.4 20:01:49 10° WNW 20:06:00 63° SSW 20:09:28 14° SE
Cosmos 540 Rocket 3.9 20:01:21 10° NNW 20:06:29 59° ENE 20:10:59 13° SE
Cosmos 1763 Rocket 3.6 20:03:13 10° NNW 20:08:35 77° ENE 20:12:54 16° SSE
Cosmos 468 Rocket 4.4 20:05:47 10° NNW 20:11:03 60° ENE 20:15:39 13° SE
Cosmos 1066 Rocket 4.4 20:05:20 10° SSW 20:11:12 78° WNW 20:17:06 10° NNE
Meteor 2-12 Rocket 4.5 20:06:04 12° S 20:11:52 88° E 20:18:05 10° NNE
Cosmos 1842 3.0 20:10:07 17° S 20:12:51 82° E 20:16:34 10° NNE
Cosmos 1674 2.4 20:11:20 16° SSW 20:13:59 85° W 20:17:30 10° N
Cosmos 1933 Rocket 3.7 20:11:27 10° NNW 20:15:48 67° W 20:19:05 17° S
Cosmos 407 Rocket 3.7 20:16:11 15° S 20:20:21 55° ESE 20:25:28 10° NNE
GP-B 4.3 20:16:40 10° NNE 20:20:38 32° E 20:23:40 15° SE
MINOTAUR 4 R/B 3.6 20:18:38 10° NNE 20:21:36 79° WNW 20:23:36 19° SSW
Cosmos 1818 4.0 20:16:37 10° WSW 20:22:04 66° NW 20:27:34 10° NE
Cosmos 2369 3.7 20:16:36 10° NW 20:22:21 84° WSW 20:26:58 16° SSE
Cosmos 1607 4.0 20:16:45 10° SSW 20:23:10 69° SE 20:29:38 10° NE
KORONAS-FOTON 3.7 20:20:40 17° SSW 20:23:24 84° W 20:27:09 10° N
ATLAS 2AS CENTAUR R/B 3.8 20:21:09 10° NW 20:27:56 47° NNE 20:34:27 10° E
H-2A R/B 2.7 20:25:54 19° S 20:28:54 64° WSW 20:33:11 10° NNW
Cosmos 1455 4.5 20:30:32 10° NNE 20:32:35 15° ENE 20:34:37 10° E
Cosmos 2219 Rocket 4.3 20:28:13 10° NNW 20:32:50 25° NNE 20:37:27 10° E
Cosmos 1833 Rocket 2.8 20:27:37 10° SW 20:33:14 79° NW 20:38:54 10° NNE
SL-16 R/B 2.9 20:29:12 10° NNW 20:34:46 52° NE 20:40:18 10° SE
COSMOS 2406 3.9 20:33:18 18° SSE 20:37:03 38° ESE 20:42:19 10° NE
ALOS 2 2.6 20:34:53 20° SSE 20:37:58 90° NW 20:42:24 10° NNW
Meteor 1-12 Rocket 4.4 20:33:18 10° NNW 20:39:16 82° ENE 20:43:55 18° SSE
S3M 4.2 20:33:05 10° NNW 20:39:28 72° W 20:44:31 17° S
Cosmos 1758 3.3 20:40:31 10° N 20:44:21 70° ENE 20:46:48 21° SSE
Cosmos 2082 Rocket 2.5 20:42:10 18° S 20:46:16 51° ESE 20:51:47 10° NE
Cosmos 1470 4.1 20:43:15 10° NNW 20:46:29 29° W 20:48:58 14° SW
Cosmos 2360 Rocket 3.5 20:41:37 10° NNW 20:46:57 39° NE 20:52:15 10° ESE
Cosmos 2251 Rocket 3.5 20:44:25 15° SSW 20:48:50 80° ESE 20:54:09 10° NNE
Meteor 2-10 Rocket 3.8 20:47:40 10° NNW 20:53:33 85° WSW 20:57:48 19° S
Cosmos 1707 Rocket 4.1 20:51:02 20° SSE 20:53:50 47° E 20:58:07 10° NNE
GEOS 3 Rocket 3.6 20:49:07 10° NE 20:54:22 89° NW 20:59:31 10° SW
SL-08 ROCKET BODY 4.5 20:50:52 16° SSW 20:55:55 86° W 21:02:07 10° N
Cosmos 724 4.3 20:53:16 10° SW 20:59:10 89° NW 21:05:02 10° NE
Cosmos 2315 Rocket 4.1 20:53:36 10° NNW 20:59:54 73° W 21:04:44 18° S
Meteor 1-13 Rocket 4.5 20:57:59 15° SSW 21:03:00 75° WNW 21:08:51 10° NNE
ARIANE 5 R/B 4.4 21:02:57 11° SW 21:06:02 21° W 21:09:22 10° NW
Okean 3 4.2 21:05:01 20° SSE 21:07:27 40° E 21:11:20 10° NNE
Cosmos 2237 4.3 21:03:47 10° NNW 21:09:34 87° NE 21:14:35 14° SSE
H-2A R/B 2.7 21:05:57 10° NNE 21:10:14 45° E 21:12:54 20° SSE
Cosmos 2285 Rocket 4.3 21:04:14 10° SW 21:10:33 70° WNW 21:16:57 10° NNE
Meteor 1-4 Rocket 4.2 21:10:32 13° ESE 21:11:49 17° E 21:13:49 10° NE
Cosmos 1315 Rocket 4.5 21:14:00 14° SE 21:16:21 23° E 21:19:29 10° NE
BREEZE-M DEB (TANK) 4.1 21:15:44 10° SW 21:18:59 45° SSE 21:28:16 10° E
Cosmos 1908 Rocket 4.2 21:15:29 10° N 21:19:49 50° ENE 21:23:12 15° SE
Cosmos 1140 Rocket 4.5 21:15:31 10° SW 21:20:33 45° NW 21:25:34 10° NNE
Cosmos 2278 3.7 21:14:55 10° NW 21:20:39 75° WSW 21:25:10 17° SSE
Cosmos 1346 Rocket 2.7 21:17:45 10° NNW 21:21:39 76° WSW 21:23:58 23° S
SL-24 R/B 4.4 21:18:36 10° NNE 21:23:20 85° ESE 21:27:08 19° SSW
Cosmos 1733 Rocket 3.2 21:19:09 10° NNW 21:23:27 61° W 21:26:12 21° S
SL-4 R/B 4.3 21:27:36 11° SE 21:27:36 11° SE 21:28:31 10° ESE
Cosmos 2322 Rocket 2.4 21:23:57 10° NNW 21:29:39 75° NE 21:35:19 10° SE
Helios 1A Rocket 4.3 21:26:19 10° SE 21:29:45 32° ENE 21:33:12 10° N
Cosmos 1400 Rocket 3.0 21:27:50 20° SSW 21:30:30 66° WNW 21:34:26 10° N
Cosmos 1300 3.3 21:27:23 10° NNW 21:30:45 40° W 21:32:38 22° SSW
Cosmos 841 Rocket 3.5 21:26:56 10° NNW 21:32:11 72° WSW 21:36:05 18° SSE
BREEZE-M DEB (TANK) 1.5 21:28:45 10° WSW 21:32:34 58° S 21:34:35 10° E
Meteor 1-21 4.3 21:28:43 19° S 21:32:57 82° ESE 21:38:46 10° NNE
Cosmos 1980 Rocket 3.7 21:33:56 10° NW 21:38:19 23° WSW 21:41:37 14° SW
USA 234 3.2 21:33:48 10° ESE 21:40:24 83° SSW 21:47:00 10° WNW
Orbus 7S? 2.7 21:37:26 10° WSW 21:40:51 83° NNW 21:43:34 10° ENE
Lacrosse 5 rocket 2.9 21:40:54 10° W 21:43:42 18° SW 21:44:16 17° SW
Okean 1-7 3.3 21:41:35 21° S 21:44:23 61° E 21:48:41 10° NNE
Cosmos 2333 Rocket 2.5 21:39:17 10° NNW 21:45:01 72° NE 21:50:46 10° SE
Cosmos 2228 Rocket 3.5 21:41:50 18° SSW 21:45:04 57° WNW 21:49:35 10° N
Cosmos 1242 Rocket 4.2 21:47:51 12° SE 21:49:21 17° E 21:51:19 10° NE
Cosmos 1356 Rocket 3.6 21:51:21 20° SSW 21:54:07 66° WNW 21:58:18 10° N
Cosmos 1953 2.2 21:50:39 10° NNW 21:54:34 76° W 21:57:01 21° S
SL-27 R/B 4.2 21:56:27 12° SE 21:57:35 15° ESE 21:59:19 10° ENE
GP-B 4.1 21:53:49 10° NNW 21:57:53 37° W 22:00:59 16° SW
Genesis I 3.8 21:59:24 23° S 22:00:59 34° SE 22:04:16 10° ENE
SL-14 R/B 4.3 22:01:00 15° SW 22:03:45 35° WNW 22:07:18 10° N
Cosmos 1703 Rocket 3.8 22:01:24 19° S 22:04:30 65° E 22:08:56 10° NNE
Cosmos 1300 Rocket 3.9 22:02:03 10° N 22:06:21 62° ENE 22:10:02 14° SSE
Aureole 3 3.5 22:04:37 20° SW 22:06:25 43° WNW 22:09:44 10° N
Cosmos 1455 2.0 22:04:00 10° NNW 22:07:27 62° W 22:09:28 22° S
Cosmos 1862 Rocket 4.2 22:05:04 16° SW 22:08:14 46° WNW 22:12:28 10° N
Cosmos 676 Rocket 4.3 22:04:33 14° SW 22:09:05 67° WNW 22:14:25 10° NNE
SJ 16-02 2.5 22:08:51 15° SSE 22:11:46 32° ESE 22:15:37 10° NE
RESURS DK-1 2.2 22:07:50 10° NW 22:11:55 76° WSW 22:15:34 13° SSE
Cosmos 1814 Rocket 4.0 22:09:12 10° NNW 22:14:27 83° WSW 22:19:32 11° SSE
Cosmos 2219 Rocket 2.4 22:12:04 10° NNW 22:17:45 73° NE 22:23:25 10° SE
SL-16 R/B 2.8 22:13:31 10° NW 22:18:47 40° WSW 22:22:42 17° S
ATLAS 2AS CENTAUR R/B 2.7 22:12:28 10° NW 22:19:27 85° SW 22:26:08 10° SE
COSMOS 2406 3.8 22:15:33 10° SW 22:21:12 55° NW 22:26:54 10° NNE
Cosmos 2322 4.4 22:22:08 10° NNW 22:27:47 58° NE 22:33:23 10° SE
Cosmos 2082 Rocket 3.2 22:25:03 10° WSW 22:30:30 44° NW 22:35:58 10° NNE
Cosmos 2360 Rocket 2.3 22:25:39 10° NW 22:31:15 59° WSW 22:36:34 11° SSE
Cosmos 2333 4.2 22:27:43 10° NW 22:33:27 74° WSW 22:39:12 10° SSE
Cosmos 2242 Rocket 4.1 22:30:58 14° S 22:34:38 53° E 22:39:04 10° NNE
Cosmos 839 Rocket 4.2 22:27:26 10° NW 22:34:53 67° SW 22:41:08 10° SSE
Cosmos 1745 Rocket 4.1 22:30:04 16° SSW 22:35:16 85° W 22:41:39 10° N
Cosmos 405 Rocket 4.3 22:33:58 10° N 22:37:14 31° ENE 22:40:32 10° SE
SL-16 R/B 4.0 22:31:47 10° ESE 22:37:27 38° ENE 22:43:08 10° N
Okean 2 Rocket 4.5 22:33:29 10° N 22:37:35 36° ENE 22:41:41 10° SE
CZ-2C R/B 3.4 22:34:49 10° SE 22:39:48 51° ENE 22:44:54 10° N
Okean 2 4.1 22:38:45 16° SW 22:41:40 41° WNW 22:45:29 10° N
Meteor 1-4 Rocket 3.2 22:42:38 16° SW 22:44:32 33° WNW 22:47:18 10° N
USA 267 3.5 22:38:43 10° ENE 22:45:07 54° SE 22:51:04 12° SW
H-2A R/B 3.5 22:41:55 10° N 22:45:47 30° WNW 22:49:34 10° WSW
Cosmos 2237 Rocket 3.8 22:45:51 10° NNW 22:51:10 38° NE 22:56:27 10° ESE
Cosmos 1315 Rocket 3.5 22:49:16 15° SW 22:52:15 44° WNW 22:56:05 10° N
Cosmos 1570 Rocket 4.1 22:47:27 10° NNW 22:52:49 89° WSW 22:58:10 10° SSE
COSMOS 2428 3.1 22:48:33 10° NNW 22:54:15 70° NE 22:59:55 10° SE
Cosmos 1782 Rocket 4.2 22:53:46 10° NNW 22:57:50 39° W 23:01:04 15° SSW
Cosmos 968 Rocket 3.5 22:56:50 14° SSW 23:01:14 81° WNW 23:06:26 10° NNE
H-2A R/B 4.2 22:58:29 10° NNE 23:02:20 43° E 23:06:08 10° S
Helios 1A Rocket 3.7 23:01:28 15° SSW 23:04:06 32° W 23:07:35 10° NNW
Cosmos 2208 Rocket 4.0 22:59:42 10° NNW 23:05:02 89° ENE 23:10:15 10° SSE
SL-4 R/B 3.0 23:02:20 15° SSW 23:05:20 32° SSE 23:09:17 10° E
Cosmos 2098 Rocket 3.9 23:01:00 10° NNW 23:06:36 82° W 23:13:00 10° S
Cosmos 1892 4.3 23:05:46 10° SSE 23:08:42 26° E 23:11:40 10° NNE
EXPRESS MD2 3.7 23:10:58 16° SW 23:12:37 29° SSE 23:16:04 10° E
Cosmos 2322 Rocket 3.3 23:08:36 10° NW 23:13:11 26° WSW 23:17:17 12° SSW
MOZ.5/SAFIR/RUBIN 5/SL-8 4.1 23:10:18 11° S 23:14:38 50° W 23:19:13 10° NNW
Resurs 1-4 Rocket 2.7 23:10:06 10° NNE 23:15:15 52° E 23:20:23 10° S
DNEPR-1 R/B 4.5 23:08:47 10° NW 23:15:58 71° SW 23:21:43 10° SSE
Cosmos 1408 2.4 23:15:08 15° SSW 23:17:24 52° WNW 23:20:21 10° N
Meteor 1-24 Rocket 4.0 23:13:50 10° S 23:19:49 79° ESE 23:25:44 10° NNE
Cosmos 1242 Rocket 3.2 23:19:14 13° SW 23:21:23 30° WNW 23:23:59 10° N
Nadezhda 3 Rocket 4.5 23:16:10 10° N 23:22:32 66° ENE 23:28:48 10° SSE
CZ-2D R/B 2.7 23:17:41 10° NNE 23:23:06 57° E 23:28:25 10° S
USA 234 3.7 23:17:51 10° SSE 23:23:57 40° SW 23:30:05 10° WNW
Cosmos 2297 Rocket 4.3 23:22:38 10° SE 23:26:27 19° E 23:30:17 10° ENE
OPS 8737 4.2 23:24:17 10° WNW 23:27:08 47° SW 23:30:05 10° SSE
Cosmos 2333 Rocket 3.3 23:24:06 10° NW 23:28:51 28° WSW 23:33:36 10° SSW
CRYOSAT 2 4.4 23:24:35 10° N 23:29:31 90° NNW 23:34:25 10° S
SL-27 R/B 2.9 23:27:58 12° SW 23:30:22 37° WNW 23:33:01 10° NNE
Cosmos 1703 3.3 23:29:18 12° SSW 23:32:44 63° WNW 23:36:27 10° N
Cosmos 2154 Rocket 4.5 23:29:44 10° S 23:35:48 60° E 23:41:56 10° NNE
Genesis I 4.0 23:33:51 10° WSW 23:37:15 42° NNW 23:40:42 10° NE
IDEFIX/ARIANE 42P 2.6 23:32:00 10° NNE 23:37:19 89° WNW 23:42:35 10° SSW
Cosmos 1455 Rocket 4.4 23:35:25 10° N 23:39:37 41° ENE 23:43:48 10° SE
NOSS 5 (C) 4.2 23:37:16 10° NW 23:40:32 86° SW 23:43:43 10° SE
ADEOS II 2.6 23:39:10 10° NNE 23:44:22 58° ESE 23:49:32 10° S
RESURS DK-1 4.4 23:47:25 10° W 23:48:55 12° WSW 23:50:26 10° SW
CZ-4C R/B 4.2 23:47:04 10° SE 23:49:22 13° ESE 23:51:53 10° ENE
SJ 16-02 2.2 23:45:57 10° SW 23:50:03 40° NW 23:54:09 10° NNE
Cosmos 1825 2.2 23:49:06 10° S 23:52:30 67° E 23:55:56 10° NNE
Cosmos 2181 Rocket 4.5 23:47:12 10° NNW 23:53:12 45° W 23:59:04 10° SSW
Cosmos 1674 Rocket 3.6 23:50:53 10° SSW 23:55:19 84° WNW 23:59:45 10° N
